Weather History for Metropolis, IL

Change the Weather History Date:

Tuesday, October 1, 2013

  Actual Average (KPAH) Record (KPAH)
Temperature  
Mean Temperature 68 °F 64 °F  
Max Temperature 76 °F 76 °F 93 °F (1953)
Min Temperature 60 °F 51 °F 35 °F (1984)
Degree Days  
Heating Degree Days 0 4  
Month to date heating degree days 4  
Since 1 July heating degree days 43  
Cooling Degree Days 2 3  
Month to date cooling degree days 3  
Year to date cooling degree days 1503  
Growing Degree Days 18 (Base 50)    
Moisture  
Dew Point 68 °F    
Average Humidity 97    
Maximum Humidity 100    
Minimum Humidity 84    
Precipitation  
Precipitation 0.04 in 0.13 in 1.79 in (1988)
Month to date precipitation 0.13  
Year to date precipitation 36.36  
Snow  
Snow 0.00 in 0.00 in 0.00 in (2002)
Month to date snowfall 0.0  
Since 1 July snowfall 0.0  
Since 1 September snowfall 0.0  
Snow Depth -    
Sea Level Pressure  
Sea Level Pressure 30.03 in    
Wind  
Wind Speed 1 mph (South)    
Max Wind Speed 8 mph    
Max Gust Speed -    
Visibility 6 miles    
Events Fog , Rain    
T = Trace of Precipitation, MM = Missing Value Source: NWS Daily Summary

Daily Weather History Graph

Daily Weather History Graph

Search for Another Location

Airport:

Trip Planner

Search our weather history database for the weather conditions in past years. The results will help you decide how hot, cold, wet, or windy it might be!

Date:

Astronomy

Oct. 01, 2013 Rise Set
Actual Time 6:50 AM CDT 6:37 PM CDT
Civil Twilight 6:24 AM CDT 7:03 PM CDT
Nautical Twilight 5:54 AM CDT 7:33 PM CDT
Astronomical Twilight 5:24 AM CDT 8:04 PM CDT
Moon 3:28 AM CDT (10/1) 4:38 PM CDT (10/1)
Length of Visible Light 12h 39m
Length of Day
11h 47m
Waning Crescent, 12% of the Moon is Illuminated
Oct 1
Waning Crescent
Oct 4
New
Oct 11
First Quarter
Oct 18
Full
Oct 26
Last Quarter

Hourly Weather History & Observations

Time (CDT) Temp. Dew Point Humidity Pressure Visibility Wind Dir Wind Speed Gust Speed Precip Events Conditions
12:15 AM 66.7 °F 66.7 °F 100% 30.00 in 7.0 mi Calm Calm - N/A   Overcast
12:35 AM 66.7 °F 66.7 °F 100% 29.99 in 7.0 mi Calm Calm - N/A   Overcast
12:55 AM 66.7 °F 66.7 °F 100% 29.98 in 7.0 mi Calm Calm - N/A   Overcast
1:15 AM 67.1 °F 67.1 °F 100% 29.99 in 7.0 mi Calm Calm - N/A   Overcast
1:35 AM 67.1 °F 67.1 °F 100% 29.99 in 7.0 mi Calm Calm - N/A   Overcast
1:55 AM 67.1 °F 67.1 °F 100% 29.99 in 10.0 mi Calm Calm - N/A   Overcast
2:15 AM 66.4 °F 66.4 °F 100% 29.99 in 10.0 mi Calm Calm - N/A   Mostly Cloudy
2:35 AM 66.0 °F 66.0 °F 100% 30.00 in 7.0 mi Calm Calm - N/A   Mostly Cloudy
2:55 AM 66.2 °F 66.2 °F 100% 30.00 in 7.0 mi Calm Calm - N/A   Overcast
3:15 AM 65.5 °F 65.5 °F 100% 30.00 in 5.0 mi Calm Calm - N/A   Overcast
3:35 AM 65.3 °F 65.3 °F 100% 30.00 in 5.0 mi Calm Calm - N/A   Mostly Cloudy
3:55 AM 64.4 °F 64.4 °F 100% 30.00 in 1.0 mi Calm Calm - N/A   Overcast
4:15 AM 63.7 °F 63.7 °F 100% 30.00 in 1.8 mi Calm Calm - N/A   Mostly Cloudy
4:35 AM 63.3 °F 63.3 °F 100% 30.00 in 1.0 mi Calm Calm - N/A   Mostly Cloudy
4:55 AM 63.7 °F 63.7 °F 100% 30.00 in 1.5 mi Calm Calm - N/A   Scattered Clouds
5:15 AM 61.7 °F 61.7 °F 100% 30.01 in 1.8 mi Calm Calm - N/A   Scattered Clouds
5:35 AM 62.4 °F 62.4 °F 100% 30.01 in 0.8 mi Calm Calm - N/A   Scattered Clouds
5:55 AM 63.0 °F 63.0 °F 100% 30.02 in 1.5 mi Calm Calm - N/A   Unknown
6:15 AM 63.3 °F 63.3 °F 100% 30.03 in 1.8 mi Calm Calm - N/A   Mist
6:35 AM 62.8 °F 62.8 °F 100% 30.04 in 0.5 mi Calm Calm - N/A Fog Fog
6:55 AM 62.1 °F 62.1 °F 100% 30.04 in 0.5 mi Calm Calm - N/A Fog Fog
7:15 AM 60.8 °F 60.8 °F 100% 30.04 in 0.2 mi Calm Calm - N/A Fog Fog
7:35 AM 63.1 °F 63.1 °F 100% 30.05 in 1.5 mi Calm Calm - N/A   Mist
7:55 AM 64.8 °F 64.8 °F 100% 30.05 in 4.0 mi Calm Calm - N/A   Clear
8:15 AM 66.2 °F 66.2 °F 100% 30.06 in 7.0 mi SSE 4.6 mph - N/A   Scattered Clouds
8:35 AM 66.7 °F 66.7 °F 100% 30.06 in 10.0 mi SE 3.5 mph - N/A   Mostly Cloudy
8:55 AM 68.4 °F 68.2 °F 99% 30.06 in 10.0 mi SE 5.8 mph - N/A   Mostly Cloudy
9:15 AM 69.1 °F 67.6 °F 95% 30.07 in 10.0 mi South 3.5 mph - N/A   Overcast
9:35 AM 69.1 °F 68.0 °F 96% 30.07 in 10.0 mi Calm Calm - N/A   Overcast
9:55 AM 70.2 °F 68.0 °F 93% 30.07 in 10.0 mi SSW 5.8 mph - N/A   Overcast
10:15 AM 70.5 °F 68.4 °F 93% 30.07 in 10.0 mi South 4.6 mph - N/A   Overcast
10:35 AM 70.7 °F 68.2 °F 92% 30.07 in 10.0 mi South 8.1 mph - N/A   Overcast
10:55 AM 71.6 °F 68.9 °F 91% 30.07 in 10.0 mi South 3.5 mph - N/A   Overcast
11:15 AM 72.3 °F 69.3 °F 90% 30.06 in 10.0 mi SSE 3.5 mph - N/A   Overcast
11:35 AM 73.9 °F 69.4 °F 86% 30.06 in 10.0 mi South 5.8 mph - N/A   Overcast
11:55 AM 74.7 °F 69.8 °F 85% 30.06 in 10.0 mi South 5.8 mph - N/A   Overcast
12:15 PM 75.2 °F 70.0 °F 84% 30.05 in 10.0 mi SSE 5.8 mph - N/A   Overcast
12:35 PM 75.2 °F 70.3 °F 85% 30.05 in 10.0 mi SSE 3.5 mph - N/A   Overcast
12:55 PM 75.6 °F 70.5 °F 84% 30.04 in 10.0 mi SSE 3.5 mph - N/A   Overcast
1:15 PM 75.6 °F 71.1 °F 86% 30.04 in 10.0 mi SSW 5.8 mph - N/A   Overcast
1:35 PM 75.7 °F 71.4 °F 86% 30.04 in 10.0 mi South 4.6 mph - N/A   Overcast
1:55 PM 74.3 °F 70.9 °F 89% 30.04 in 10.0 mi South 6.9 mph - N/A   Overcast
2:15 PM 73.6 °F 70.5 °F 90% 30.04 in 10.0 mi South 5.8 mph - N/A   Overcast
2:35 PM 72.0 °F 71.8 °F 99% 30.03 in 3.0 mi South 5.8 mph - 0.02 in Rain Light Rain
2:55 PM 71.6 °F 71.6 °F 100% 30.03 in 3.0 mi South 4.6 mph - 0.04 in Rain Rain
3:15 PM 71.8 °F 71.8 °F 100% 30.03 in 5.0 mi South 3.5 mph - N/A   Overcast
3:35 PM 72.0 °F 72.0 °F 100% 30.03 in 5.0 mi South 3.5 mph - N/A   Overcast
3:55 PM 72.7 °F 72.0 °F 98% 30.03 in 7.0 mi South 3.5 mph - N/A   Overcast
4:15 PM 72.5 °F 71.6 °F 97% 30.03 in 10.0 mi South 5.8 mph - N/A   Overcast
4:35 PM 72.3 °F 71.6 °F 98% 30.03 in 10.0 mi South 3.5 mph - N/A   Overcast
4:55 PM 71.4 °F 71.4 °F 100% 30.03 in 5.0 mi Calm Calm - N/A   Overcast
5:15 PM 71.6 °F 71.6 °F 100% 30.03 in 10.0 mi Calm Calm - N/A   Overcast
5:35 PM 71.8 °F 71.8 °F 100% 30.03 in 10.0 mi Calm Calm - N/A   Overcast
5:55 PM 71.8 °F 71.8 °F 100% 30.03 in 10.0 mi Calm Calm - N/A   Overcast
6:15 PM 71.6 °F 71.6 °F 100% 30.02 in 10.0 mi Calm Calm - N/A   Overcast
6:35 PM 70.7 °F 70.7 °F 100% 30.02 in 7.0 mi Calm Calm - N/A   Overcast
6:55 PM 70.7 °F 70.7 °F 100% 30.02 in 7.0 mi Calm Calm - N/A   Overcast
7:15 PM 70.9 °F 70.9 °F 100% 30.03 in 10.0 mi Calm Calm - N/A   Overcast
7:35 PM 71.1 °F 71.1 °F 100% 30.03 in 10.0 mi Calm Calm - N/A   Overcast
7:55 PM 70.7 °F 70.7 °F 100% 30.03 in 10.0 mi Calm Calm - N/A   Mostly Cloudy
8:15 PM 69.3 °F 69.3 °F 100% 30.04 in 1.0 mi Calm Calm - N/A   Overcast
8:35 PM 68.7 °F 68.7 °F 100% 30.04 in 0.2 mi Calm Calm - N/A Fog Fog
8:55 PM 68.0 °F 68.0 °F 100% 30.05 in 0.2 mi Calm Calm - N/A Fog Fog
9:15 PM 67.1 °F 67.1 °F 100% 30.05 in 0.2 mi Calm Calm - N/A Fog Fog
9:35 PM 66.6 °F 66.6 °F 100% 30.05 in 0.2 mi Calm Calm - N/A Fog Fog
9:55 PM 65.8 °F 65.8 °F 100% 30.05 in 0.2 mi Calm Calm - N/A Fog Fog
10:15 PM 66.2 °F 66.2 °F 100% 30.05 in 0.2 mi Calm Calm - N/A Fog Fog
10:35 PM 65.5 °F 65.5 °F 100% 30.05 in 0.2 mi Calm Calm - N/A Fog Fog
10:55 PM 65.7 °F 65.7 °F 100% 30.05 in 0.2 mi Calm Calm - N/A Fog Fog
11:15 PM 65.3 °F 65.3 °F 100% 30.05 in 0.2 mi Calm Calm - N/A Fog Fog
11:35 PM 65.3 °F 65.3 °F 100% 30.05 in 0.2 mi Calm Calm - N/A Fog Fog
11:55 PM 64.9 °F 64.9 °F 100% 30.05 in 0.2 mi Calm Calm - N/A Fog Fog